San Jose, Costa Rica

8:12 PM CST on May 20, 2018 (GMT -0600)
Juan Santamaria International

Weather History for MROC - April, 2012

Change the Weather History Date:

Sunday, April 8, 2012

  Actual Average Record
Temperature  
Mean Temperature 74 °F -  
Max Temperature 82 °F 82 °F 91 °F (1998)
Min Temperature 65 °F 65 °F 61 °F (2018)
Cooling Degree Days 8    
Growing Degree Days 24 (Base 50)    
Moisture  
Dew Point 61 °F    
Average Humidity 68    
Maximum Humidity 94    
Minimum Humidity 34    
Precipitation  
Precipitation 0.01 in 0.17 in - ()
Sea Level Pressure  
Sea Level Pressure 30.00 in    
Wind  
Wind Speed 6 mph ()    
Max Wind Speed 16 mph    
Max Gust Speed -    
Visibility 6.9 miles    
Events      
Averages and records for this station are not official NWS values.
T = Trace of Precipitation, MM = Missing Value Source: Averaged Metar Reports

Daily Weather History Graph

Daily Weather History Graph

Search for Another Location

Airport or City:

Astronomy

Apr. 08, 2012 Rise Set
Actual Time 5:29 AM CST 5:47 PM CST
Civil Twilight 5:08 AM CST 6:08 PM CST
Nautical Twilight 4:44 AM CST 6:33 PM CST
Astronomical Twilight 4:19 AM CST 6:58 PM CST
Moon 7:56 PM CST (4/8) 6:56 AM CST (4/8)
Length of Visible Light 12h 59m
Length of Day
12h 17m
Waning Gibbous, 94% of the Moon is Illuminated
Apr 8
Waning Gibbous
Apr 13
Last Quarter
Apr 21
New
Apr 29
First Quarter
May 5
Full

Hourly Weather History & Observations

Time (CST) Temp. Heat Index Dew Point Humidity Pressure Visibility Wind Dir Wind Speed Gust Speed Precip Events Conditions
12:00 AM 69 °F - 67 °F 91% 29.88 in 6 mi East 3.5 mph - -   Overcast
12:00 AM 68.0 °F - 66.2 °F 94% 30.06 in 5.6 mi East 3.5 mph - N/A   Mostly Cloudy
1:00 AM 68.0 °F - 66.2 °F 94% 30.03 in 5.6 mi ENE 3.5 mph - N/A   Mostly Cloudy
2:00 AM 69.8 °F - 64.4 °F 83% 30.01 in 6.2 mi NNE 6.9 mph - N/A   Mostly Cloudy
3:00 AM 67 °F - 64 °F 85% 29.87 in 9 mi East 4.6 mph - -   Partly Cloudy
3:00 AM 66.2 °F - 64.4 °F 94% 30.01 in 6.2 mi East 4.6 mph - N/A   Scattered Clouds
4:00 AM 66.2 °F - 64.4 °F 94% 30.01 in 6.2 mi ENE 5.8 mph - N/A   Mostly Cloudy
5:00 AM 66.2 °F - 64.4 °F 94% 30.02 in 6.2 mi ENE 3.5 mph - N/A   Mostly Cloudy
6:00 AM 68 °F - 64 °F 82% 29.88 in 9 mi NE 3.5 mph - -   Overcast
6:00 AM 68.0 °F - 64.4 °F 88% 30.02 in 6.2 mi NE 3.5 mph - N/A   Mostly Cloudy
7:00 AM 69.8 °F - 64.4 °F 83% 30.05 in 6.2 mi South 3.5 mph - N/A   Mostly Cloudy
8:00 AM 75.2 °F - 64.4 °F 69% 30.06 in 6.2 mi South 2.3 mph - N/A   Mostly Cloudy
9:00 AM 77.0 °F - 62.6 °F 61% 30.08 in 6.2 mi NW 8.1 mph - N/A   Mostly Cloudy
10:00 AM 77.0 °F - 60.8 °F 57% 30.07 in 6.2 mi East 10.4 mph - N/A   Mostly Cloudy
11:00 AM 80.6 °F 81.1 °F 59.0 °F 48% 30.06 in 6.2 mi East 10.4 mph - N/A   Mostly Cloudy
12:00 PM 80.6 °F 81.5 °F 60.8 °F 51% 30.03 in 6.2 mi ESE 12.7 mph - N/A   Mostly Cloudy
1:00 PM 80.6 °F 81.1 °F 59.0 °F 48% 30.01 in 6.2 mi ESE 12.7 mph - N/A   Mostly Cloudy
2:00 PM 80.6 °F 80.8 °F 57.2 °F 45% 29.99 in 6.2 mi ESE 15.0 mph - N/A   Mostly Cloudy
3:00 PM 79 °F - 56 °F 34% 29.84 in 12 mi ESE 11.5 mph - -   Overcast
3:00 PM 78.8 °F - 55.4 °F 44% 29.99 in 6.2 mi ESE 11.5 mph - N/A   Mostly Cloudy
4:00 PM 75.2 °F - 59.0 °F 57% 30.00 in 6.2 mi SE 15.0 mph - N/A   Mostly Cloudy
5:00 PM 73.4 °F - 59.0 °F 61% 30.00 in 6.2 mi ESE 16.1 mph - N/A   Mostly Cloudy
6:00 PM 72 °F - 59 °F 55% 29.86 in 12 mi ESE 9.2 mph - -   Scattered Clouds
6:00 PM 73.4 °F - 59.0 °F 61% 30.02 in 6.2 mi ESE 9.2 mph - N/A   Scattered Clouds
7:00 PM 71.6 °F - 57.2 °F 60% 30.04 in - East 8.1 mph - N/A   Clear
8:00 PM 71.6 °F - 59.0 °F 64% 30.05 in - East 8.1 mph - N/A   Clear
9:00 PM 69.8 °F - 57.2 °F 64% 30.06 in - East 9.2 mph - N/A   Clear
10:00 PM 68.0 °F - 57.2 °F 68% 30.06 in - ENE 8.1 mph - N/A   Clear
11:00 PM 68.0 °F - 51.8 °F 56% 30.05 in - NNE 8.1 mph - N/A   Clear